TimeEDT,TemperatureF,Dew PointF,Humidity,Sea Level PressureIn,VisibilityMPH,Wind Direction,Wind SpeedMPH,Gust SpeedMPH,PrecipitationIn,Events,Conditions,WindDirDegrees,DateUTC
12:15 AM,67.6,61.7,81,29.72,10.0,North,-9999.0,-,N/A,Rain,Light Rain,0,2013-04-12 04:15:00
12:35 AM,67.6,63.1,85,29.73,4.0,North,-9999.0,-,N/A,Rain,Heavy Rain,0,2013-04-12 04:35:00
12:55 AM,65.8,63.7,93,29.74,7.0,North,-9999.0,-,N/A,Rain,Rain,0,2013-04-12 04:55:00
1:15 AM,62.6,61.0,94,29.75,4.0,North,-9999.0,-,N/A,Rain,Heavy Rain,0,2013-04-12 05:15:00
1:35 AM,61.7,61.0,97,29.76,3.0,North,-9999.0,-,N/A,Rain,Heavy Rain,0,2013-04-12 05:35:00
1:55 AM,61.2,61.0,99,29.73,7.0,North,-9999.0,-,N/A,Rain,Rain,0,2013-04-12 05:55:00
2:15 AM,60.8,60.8,100,29.74,4.0,North,-9999.0,-,N/A,Rain,Rain,0,2013-04-12 06:15:00
2:35 AM,61.0,61.0,100,29.75,4.0,North,-9999.0,-,N/A,Rain,Rain,0,2013-04-12 06:35:00
2:55 AM,60.8,60.8,100,29.73,4.0,North,-9999.0,-,N/A,Rain,Rain,0,2013-04-12 06:55:00
3:15 AM,60.8,60.8,100,29.71,5.0,North,-9999.0,-,N/A,Rain,Rain,0,2013-04-12 07:15:00
3:35 AM,60.8,60.8,100,29.68,10.0,North,-9999.0,-,N/A,Rain,Light Rain,0,2013-04-12 07:35:00
3:55 AM,60.8,60.8,100,29.63,10.0,North,-9999.0,-,N/A,Rain,Light Rain,0,2013-04-12 07:55:00
4:15 AM,60.8,60.8,100,29.64,10.0,North,-9999.0,-,N/A,,Mostly Cloudy,0,2013-04-12 08:15:00
4:35 AM,60.4,60.4,100,29.65,7.0,North,-9999.0,-,N/A,,Mostly Cloudy,0,2013-04-12 08:35:00
4:55 AM,60.3,60.3,100,29.65,10.0,North,-9999.0,-,N/A,,Mostly Cloudy,0,2013-04-12 08:55:00
5:15 AM,59.7,59.7,100,29.65,10.0,North,-9999.0,-,N/A,,Mostly Cloudy,0,2013-04-12 09:15:00
5:35 AM,59.2,59.2,100,29.65,5.0,North,-9999.0,-,N/A,,Mostly Cloudy,0,2013-04-12 09:35:00
5:55 AM,59.2,59.2,100,29.65,10.0,North,-9999.0,-,N/A,,Overcast,0,2013-04-12 09:55:00
6:15 AM,59.2,59.2,100,29.65,7.0,North,-9999.0,-,N/A,,Overcast,0,2013-04-12 10:15:00
6:35 AM,59.2,59.2,100,29.66,7.0,North,-9999.0,-,N/A,,Overcast,0,2013-04-12 10:35:00
6:55 AM,59.5,59.5,100,29.67,7.0,North,-9999.0,-,N/A,Rain,Light Rain,0,2013-04-12 10:55:00
7:15 AM,59.4,59.4,100,29.68,5.0,North,-9999.0,-,N/A,Rain,Light Rain,0,2013-04-12 11:15:00
7:35 AM,59.9,59.9,100,29.70,4.0,North,-9999.0,-,N/A,Rain,Rain,0,2013-04-12 11:35:00
7:55 AM,60.4,60.4,100,29.70,10.0,North,-9999.0,-,N/A,,Overcast,0,2013-04-12 11:55:00
8:15 AM,60.8,60.8,100,29.72,10.0,North,-9999.0,-,N/A,,Overcast,0,2013-04-12 12:15:00
8:35 AM,60.6,60.6,100,29.73,7.0,North,-9999.0,-,N/A,Rain,Rain,0,2013-04-12 12:35:00
8:55 AM,59.2,58.1,96,29.75,5.0,North,-9999.0,-,N/A,Rain,Light Rain,0,2013-04-12 12:55:00
9:15 AM,58.6,57.4,96,29.77,10.0,North,-9999.0,-,N/A,,Overcast,0,2013-04-12 13:15:00
9:35 AM,58.3,57.0,96,29.77,5.0,North,-9999.0,-,N/A,Rain,Rain,0,2013-04-12 13:35:00
9:55 AM,57.2,56.3,97,29.78,10.0,North,-9999.0,-,N/A,,Light Drizzle,0,2013-04-12 13:55:00
10:15 AM,58.8,55.9,90,29.79,10.0,North,-9999.0,-,N/A,,Overcast,0,2013-04-12 14:15:00
10:55 AM,59.0,54.7,86,29.80,10.0,North,-9999.0,-,N/A,,Overcast,0,2013-04-12 14:55:00
11:15 AM,59.9,54.9,83,29.81,10.0,North,-9999.0,-,N/A,,Overcast,0,2013-04-12 15:15:00
11:35 AM,59.4,53.8,82,29.81,10.0,North,-9999.0,-,N/A,,Overcast,0,2013-04-12 15:35:00
12:15 PM,59.9,53.1,78,29.81,10.0,North,-9999.0,-,N/A,,Overcast,0,2013-04-12 16:15:00
12:35 PM,60.1,52.7,77,29.81,10.0,North,-9999.0,-,N/A,,Overcast,0,2013-04-12 16:35:00
1:15 PM,60.8,52.7,75,29.80,10.0,North,-9999.0,-,N/A,,Overcast,0,2013-04-12 17:15:00
1:35 PM,61.3,52.2,72,29.81,10.0,North,-9999.0,-,N/A,,Overcast,0,2013-04-12 17:35:00
2:35 PM,61.9,49.6,64,29.82,10.0,North,-9999.0,-,N/A,,Mostly Cloudy,0,2013-04-12 18:35:00
2:55 PM,61.3,48.9,64,29.82,10.0,North,-9999.0,-,N/A,,Mostly Cloudy,0,2013-04-12 18:55:00
3:15 PM,61.2,48.6,63,29.82,10.0,North,-9999.0,-,N/A,,Mostly Cloudy,0,2013-04-12 19:15:00
3:35 PM,63.3,47.8,57,29.81,10.0,North,-9999.0,-,N/A,,Scattered Clouds,0,2013-04-12 19:35:00
3:55 PM,63.9,46.0,52,29.81,10.0,North,-9999.0,-,N/A,,Scattered Clouds,0,2013-04-12 19:55:00
4:15 PM,64.2,43.2,46,29.81,10.0,North,-9999.0,-,N/A,,Clear,0,2013-04-12 20:15:00
4:35 PM,64.8,42.4,44,29.81,10.0,North,-9999.0,-,N/A,,Clear,0,2013-04-12 20:35:00
4:55 PM,65.5,42.1,43,29.81,10.0,North,-9999.0,-,N/A,,Clear,0,2013-04-12 20:55:00
5:15 PM,64.9,40.3,40,29.81,10.0,North,-9999.0,-,N/A,,Clear,0,2013-04-12 21:15:00
5:35 PM,65.3,40.3,40,29.82,10.0,North,-9999.0,-,N/A,,Clear,0,2013-04-12 21:35:00
5:55 PM,65.5,40.1,39,29.82,10.0,North,-9999.0,-,N/A,,Clear,0,2013-04-12 21:55:00
6:15 PM,65.1,39.7,39,29.82,10.0,North,-9999.0,-,N/A,,Clear,0,2013-04-12 22:15:00
6:35 PM,64.4,38.8,39,29.83,10.0,North,-9999.0,-,N/A,,Clear,0,2013-04-12 22:35:00
6:55 PM,63.1,39.2,41,29.83,10.0,North,-9999.0,-,N/A,,Clear,0,2013-04-12 22:55:00
7:15 PM,61.9,38.7,42,29.84,10.0,North,-9999.0,-,N/A,,Clear,0,2013-04-12 23:15:00
7:35 PM,61.0,38.5,43,29.84,10.0,North,-9999.0,-,N/A,,Clear,0,2013-04-12 23:35:00
7:55 PM,59.5,39.0,47,29.85,10.0,North,-9999.0,-,N/A,,Clear,0,2013-04-12 23:55:00
8:15 PM,58.6,38.8,48,29.86,10.0,North,-9999.0,-,N/A,,Clear,0,2013-04-13 00:15:00
8:35 PM,57.7,38.7,49,29.87,10.0,North,-9999.0,-,N/A,,Clear,0,2013-04-13 00:35:00
8:55 PM,57.6,37.6,47,29.89,10.0,North,-9999.0,-,N/A,,Clear,0,2013-04-13 00:55:00
9:15 PM,55.9,38.1,51,29.90,10.0,North,-9999.0,-,N/A,,Clear,0,2013-04-13 01:15:00
9:35 PM,55.4,37.6,51,29.91,10.0,North,-9999.0,-,N/A,,Clear,0,2013-04-13 01:35:00
9:55 PM,54.5,37.0,52,29.93,10.0,North,-9999.0,-,N/A,,Clear,0,2013-04-13 01:55:00
10:15 PM,53.2,37.4,55,29.94,10.0,North,-9999.0,-,N/A,,Scattered Clouds,0,2013-04-13 02:15:00
10:35 PM,52.7,37.6,56,29.95,10.0,North,-9999.0,-,N/A,,Scattered Clouds,0,2013-04-13 02:35:00
10:55 PM,52.7,37.0,55,29.95,10.0,North,-9999.0,-,N/A,,Mostly Cloudy,0,2013-04-13 02:55:00
11:15 PM,54.0,36.1,51,29.95,10.0,North,-9999.0,-,N/A,,Overcast,0,2013-04-13 03:15:00
11:35 PM,54.7,35.8,49,29.95,10.0,North,-9999.0,-,N/A,,Overcast,0,2013-04-13 03:35:00
11:55 PM,54.7,36.0,49,29.96,10.0,North,-9999.0,-,N/A,,Overcast,0,2013-04-13 03:55:00